| time (UTC) | temp F | wind direction | speed MPH | gust MPH | rain 1hr in | rain 24hr in | rain mn in | humidity % | barometer mb |
| 20260502182402 | 58 | 195 | 4.0 | 5.0 | 0.00 | 0.00 | 0.03 | 55 | 1014.5 |
| 20260502181901 | 58 | 34 | 3.0 | 0.0 | 0.00 | 0.00 | 0.03 | 55 | 1014.6 |
| 20260502181402 | 57 | 66 | 0.0 | 0.0 | 0.00 | 0.00 | 0.03 | 58 | 1014.4 |
| 20260502180903 | 57 | 163 | 1.0 | 0.0 | 0.00 | 0.00 | 0.03 | 59 | 1014.5 |
| 20260502170408 | 54 | 235 | 2.0 | 2.0 | 0.00 | 0.00 | 0.03 | 64 | 1014.0 |
| 20260502163412 | 53 | 332 | 6.0 | 1.0 | 0.00 | 0.00 | 0.03 | 67 | 1013.8 |
| 20260502162412 | 52 | 177 | 3.0 | 7.0 | 0.00 | 0.00 | 0.03 | 68 | 1013.8 |
| 20260502161913 | 52 | 34 | 5.0 | 1.0 | 0.00 | 0.00 | 0.03 | 67 | 1013.8 |
| 20260502161411 | 52 | 160 | 2.0 | 3.0 | 0.00 | 0.00 | 0.03 | 70 | 1013.8 |
| 20260502160912 | 51 | 160 | 3.0 | 6.0 | 0.00 | 0.00 | 0.03 | 69 | 1013.9 |
| 20260502160413 | 52 | 179 | 3.0 | 1.0 | 0.00 | 0.00 | 0.03 | 70 | 1013.8 |
| 20260502151916 | 48 | 195 | 3.0 | 0.0 | 0.00 | 0.00 | 0.03 | 78 | 1013.4 |
| 20260502150927 | 48 | 152 | 3.0 | 2.0 | 0.00 | 0.00 | 0.03 | 80 | 1013.3 |
| 20260502130429 | 43 | 253 | 1.0 | 2.0 | 0.00 | 0.00 | 0.03 | 94 | 1012.8 |
| 20260502123430 | 42 | 194 | 0.0 | 0.0 | 0.00 | 0.00 | 0.03 | 95 | 1013.0 |
| 20260502122929 | 42 | 194 | 0.0 | 0.0 | 0.00 | 0.00 | 0.03 | 95 | 1012.8 |
| 20260502122429 | 42 | 194 | 0.0 | 0.0 | 0.00 | 0.00 | 0.03 | 96 | 1013.0 |
| 20260502121930 | 42 | 194 | 0.0 | 0.0 | 0.00 | 0.00 | 0.03 | 96 | 1012.8 |
| 20260502121431 | 42 | 194 | 0.0 | 0.0 | 0.00 | 0.00 | 0.03 | 96 | 1013.0 |
| 20260502120932 | 42 | 194 | 0.0 | 0.0 | 0.00 | 0.00 | 0.03 | 96 | 1013.1 |
| 20260502115931 | 42 | 236 | 0.0 | 0.0 | 0.00 | 0.00 | 0.03 | 96 | 1013.1 |
| 20260502115432 | 42 | 174 | 0.0 | 1.0 | 0.00 | 0.00 | 0.03 | 96 | 1013.1 |
| 20260502114933 | 42 | 236 | 0.0 | 0.0 | 0.00 | 0.00 | 0.03 | 96 | 1013.1 |
| 20260502114434 | 42 | 236 | 0.0 | 0.0 | 0.00 | 0.00 | 0.03 | 96 | 1013.2 |
| 20260502113932 | 42 | 236 | 0.0 | 0.0 | 0.00 | 0.00 | 0.03 | 96 | 1013.1 |
| 20260502113433 | 42 | 236 | 0.0 | 0.0 | 0.00 | 0.00 | 0.03 | 96 | 1013.1 |
| 20260502112934 | 42 | 236 | 0.0 | 0.0 | 0.00 | 0.00 | 0.03 | 96 | 1013.2 |
| 20260502112435 | 42 | 236 | 0.0 | 0.0 | 0.00 | 0.00 | 0.03 | 96 | 1013.1 |
| 20260502111936 | 42 | 236 | 0.0 | 0.0 | 0.00 | 0.00 | 0.03 | 96 | 1013.2 |
| 20260502111434 | 42 | 236 | 0.0 | 0.0 | 0.00 | 0.00 | 0.03 | 96 | 1013.2 |
| 20260502110936 | 42 | 236 | 0.0 | 0.0 | 0.00 | 0.00 | 0.03 | 96 | 1013.3 |
| 20260502110437 | 42 | 236 | 0.0 | 0.0 | 0.00 | 0.00 | 0.03 | 96 | 1013.3 |
| 20260502105938 | 42 | 236 | 0.0 | 0.0 | 0.00 | 0.00 | 0.03 | 96 | 1013.3 |
| 20260502105439 | 42 | 236 | 0.0 | 0.0 | 0.00 | 0.00 | 0.03 | 96 | 1013.4 |
| 20260502104937 | 42 | 236 | 0.0 | 0.0 | 0.00 | 0.00 | 0.03 | 96 | 1013.3 |
| 20260502104438 | 42 | 236 | 0.0 | 0.0 | 0.00 | 0.00 | 0.03 | 96 | 1013.4 |
| 20260502103939 | 42 | 236 | 0.0 | 0.0 | 0.00 | 0.00 | 0.03 | 96 | 1013.6 |
| 20260502103441 | 42 | 236 | 0.0 | 0.0 | 0.00 | 0.00 | 0.03 | 96 | 1013.7 |
| 20260502102941 | 41 | 236 | 0.0 | 0.0 | 0.00 | 0.00 | 0.03 | 96 | 1013.7 |
| 20260502102440 | 41 | 236 | 0.0 | 0.0 | 0.00 | 0.00 | 0.03 | 96 | 1013.7 |
| 20260502101940 | 41 | 236 | 0.0 | 0.0 | 0.00 | 0.00 | 0.03 | 95 | 1013.8 |
| 20260502101441 | 41 | 236 | 0.0 | 0.0 | 0.00 | 0.00 | 0.03 | 95 | 1013.7 |
| 20260502100942 | 41 | 236 | 0.0 | 0.0 | 0.00 | 0.00 | 0.03 | 95 | 1013.7 |
| 20260502100443 | 41 | 236 | 0.0 | 0.0 | 0.00 | 0.00 | 0.03 | 95 | 1013.7 |
| 20260502091448 | 44 | 236 | 0.0 | 0.0 | 0.00 | 0.00 | 0.03 | 92 | 1013.9 |
| 20260502090946 | 44 | 236 | 0.0 | 0.0 | 0.00 | 0.00 | 0.03 | 92 | 1013.9 |
| 20260502090447 | 45 | 236 | 0.0 | 0.0 | 0.00 | 0.00 | 0.03 | 92 | 1014.0 |
| 20260502070958 | 48 | 94 | 0.0 | 0.0 | 0.00 | 0.00 | 0.00 | 89 | 1016.3 |
| 20260502070456 | 48 | 49 | 0.0 | 0.0 | 0.00 | 0.00 | 0.00 | 89 | 1016.3 |
| 20260502065957 | 48 | 46 | 2.0 | 2.0 | 0.00 | 0.00 | 0.00 | 90 | 1016.2 |
| 20260502065000 | 48 | 266 | 1.0 | 0.0 | 0.00 | 0.00 | 0.00 | 89 | 1016.2 |
| 20260502064501 | 48 | 290 | 1.0 | 4.0 | 0.00 | 0.00 | 0.00 | 88 | 1016.2 |
| 20260502063500 | 48 | 302 | 3.0 | 3.0 | 0.00 | 0.00 | 0.00 | 89 | 1016.2 |
| 20260502063001 | 48 | 302 | 1.0 | 3.0 | 0.00 | 0.00 | 0.00 | 89 | 1016.2 |
| 20260502062502 | 48 | 291 | 2.0 | 2.0 | 0.00 | 0.00 | 0.00 | 90 | 1016.2 |
| 20260502061501 | 48 | 229 | 0.0 | 0.0 | 0.00 | 0.00 | 0.00 | 87 | 1015.4 |
| 20260502061002 | 48 | 229 | 0.0 | 0.0 | 0.00 | 0.00 | 0.00 | 87 | 1015.2 |
| 20260502060503 | 48 | 229 | 0.0 | 0.0 | 0.00 | 0.00 | 0.00 | 87 | 1015.1 |
| 20260502055505 | 48 | 280 | 1.0 | 4.0 | 0.00 | 0.00 | 0.00 | 87 | 1015.2 |
| 20260502055003 | 48 | 288 | 0.0 | 0.0 | 0.00 | 0.00 | 0.00 | 87 | 1015.1 |
| 20260502054504 | 48 | 312 | 0.0 | 0.0 | 0.00 | 0.00 | 0.00 | 87 | 1015.1 |
| 20260502053506 | 48 | 155 | 0.0 | 0.0 | 0.00 | 0.00 | 0.00 | 88 | 1015.2 |
| 20260502052506 | 49 | 285 | 4.0 | 5.0 | 0.00 | 0.00 | 0.00 | 85 | 1015.2 |
| 20260502052007 | 49 | 236 | 1.0 | 1.0 | 0.00 | 0.00 | 0.00 | 85 | 1015.1 |
| 20260502050510 | 49 | 336 | 4.0 | 3.0 | 0.00 | 0.00 | 0.00 | 84 | 1015.2 |
| 20260502043511 | 50 | 219 | 3.0 | 1.0 | 0.00 | 0.00 | 0.00 | 80 | 1015.3 |
| 20260502042013 | 51 | 302 | 5.0 | 3.0 | 0.00 | 0.00 | 0.00 | 80 | 1015.2 |
| 20260502041515 | 51 | 224 | 2.0 | 1.0 | 0.00 | 0.00 | 0.00 | 78 | 1015.2 |
| 20260502041013 | 52 | 294 | 1.0 | 2.0 | 0.00 | 0.00 | 0.00 | 78 | 1015.2 |
| 20260502040027 | 52 | 290 | 2.0 | 1.0 | 0.00 | 0.00 | 0.00 | 77 | 1015.3 |
| 20260502035017 | 52 | 298 | 1.0 | 0.0 | 0.00 | 0.00 | 0.00 | 77 | 1015.3 |
| 20260502034016 | 52 | 329 | 1.0 | 1.0 | 0.00 | 0.00 | 0.00 | 76 | 1015.0 |
| 20260502033018 | 52 | 314 | 2.0 | 3.0 | 0.00 | 0.00 | 0.00 | 76 | 1014.9 |
| 20260502032519 | 53 | 307 | 5.0 | 4.0 | 0.00 | 0.00 | 0.00 | 76 | 1015.0 |
| 20260502032017 | 53 | 325 | 2.0 | 3.0 | 0.00 | 0.00 | 0.00 | 75 | 1014.9 |
| 20260502031518 | 53 | 314 | 2.0 | 2.0 | 0.00 | 0.00 | 0.00 | 74 | 1015.0 |
| 20260502031019 | 53 | 330 | 5.0 | 3.0 | 0.00 | 0.00 | 0.00 | 74 | 1015.0 |
| 20260502025519 | 54 | 311 | 4.0 | 3.0 | 0.00 | 0.00 | 0.00 | 71 | 1014.6 |
| 20260502024521 | 55 | 307 | 1.0 | 2.0 | 0.00 | 0.00 | 0.00 | 69 | 1014.6 |
| 20260502024022 | 55 | 318 | 2.0 | 1.0 | 0.00 | 0.00 | 0.00 | 69 | 1014.6 |
| 20260502023523 | 56 | 284 | 1.0 | 1.0 | 0.00 | 0.00 | 0.00 | 68 | 1014.7 |
| 20260502023022 | 56 | 288 | 2.0 | 3.0 | 0.00 | 0.00 | 0.00 | 67 | 1014.7 |
| 20260502021529 | 57 | 273 | 3.0 | 3.0 | 0.00 | 0.00 | 0.00 | 64 | 1014.9 |
| 20260502021026 | 58 | 280 | 3.0 | 2.0 | 0.00 | 0.00 | 0.00 | 62 | 1014.7 |
| 20260502020524 | 58 | 316 | 4.0 | 0.0 | 0.00 | 0.00 | 0.00 | 60 | 1014.7 |
| 20260502015526 | 59 | 277 | 4.0 | 2.0 | 0.00 | 0.00 | 0.00 | 58 | 1014.7 |
| 20260502014528 | 60 | 300 | 5.0 | 4.0 | 0.00 | 0.00 | 0.00 | 57 | 1014.7 |
| 20260502014026 | 60 | 329 | 4.0 | 4.0 | 0.00 | 0.00 | 0.00 | 56 | 1014.7 |
| 20260502013527 | 61 | 318 | 4.0 | 5.0 | 0.00 | 0.00 | 0.00 | 55 | 1014.9 |
| 20260502013028 | 61 | 271 | 5.0 | 3.0 | 0.00 | 0.00 | 0.00 | 54 | 1014.9 |
| 20260502012529 | 61 | 333 | 2.0 | 0.0 | 0.00 | 0.00 | 0.00 | 53 | 1014.9 |
| 20260502012039 | 62 | 300 | 4.0 | 2.0 | 0.00 | 0.00 | 0.00 | 51 | 1014.7 |
| 20260502011531 | 62 | 307 | 2.0 | 4.0 | 0.00 | 0.00 | 0.00 | 51 | 1014.7 |
| 20260502011045 | 62 | 291 | 3.0 | 4.0 | 0.00 | 0.00 | 0.00 | 50 | 1014.7 |
| 20260502010531 | 63 | 308 | 4.0 | 3.0 | 0.00 | 0.00 | 0.00 | 49 | 1014.7 |
| 20260502010032 | 63 | 290 | 4.0 | 6.0 | 0.00 | 0.00 | 0.00 | 48 | 1014.7 |
| 20260502005533 | 63 | 311 | 3.0 | 5.0 | 0.00 | 0.00 | 0.00 | 48 | 1014.7 |
| 20260502005031 | 63 | 332 | 2.0 | 0.0 | 0.00 | 0.00 | 0.00 | 47 | 1014.7 |
| 20260502004532 | 63 | 304 | 5.0 | 4.0 | 0.00 | 0.00 | 0.00 | 46 | 1014.7 |
| 20260502004033 | 64 | 260 | 4.0 | 0.0 | 0.00 | 0.00 | 0.00 | 46 | 1014.7 |
| 20260502003534 | 64 | 330 | 4.0 | 2.0 | 0.00 | 0.00 | 0.00 | 45 | 1014.7 |
| 20260502003035 | 64 | 278 | 4.0 | 4.0 | 0.00 | 0.00 | 0.00 | 44 | 1014.7 |
| 20260502002533 | 64 | 256 | 3.0 | 2.0 | 0.00 | 0.00 | 0.00 | 45 | 1014.7 |
| 20260502002034 | 64 | 343 | 1.0 | 1.0 | 0.00 | 0.00 | 0.00 | 42 | 1014.9 |
| 20260502001536 | 64 | 302 | 1.0 | 0.0 | 0.00 | 0.00 | 0.00 | 45 | 1015.0 |
| 20260502001037 | 64 | 302 | 2.0 | 8.0 | 0.00 | 0.00 | 0.00 | 43 | 1015.0 |
| 20260502000538 | 64 | 342 | 6.0 | 4.0 | 0.00 | 0.00 | 0.00 | 43 | 1014.9 |
| 20260502000036 | 65 | 343 | 4.0 | 2.0 | 0.00 | 0.00 | 0.00 | 43 | 1014.7 |
| 20260501235537 | 65 | 284 | 4.0 | 1.0 | 0.00 | 0.00 | 0.00 | 43 | 1014.7 |
| 20260501235038 | 65 | 335 | 5.0 | 4.0 | 0.00 | 0.00 | 0.00 | 41 | 1014.7 |
| 20260501234539 | 65 | 283 | 6.0 | 1.0 | 0.00 | 0.00 | 0.00 | 42 | 1014.6 |
| 20260501234040 | 66 | 312 | 5.0 | 5.0 | 0.00 | 0.00 | 0.00 | 41 | 1014.6 |
| 20260501233538 | 66 | 315 | 1.0 | 1.0 | 0.00 | 0.00 | 0.00 | 41 | 1014.6 |
| 20260501233039 | 67 | 283 | 3.0 | 4.0 | 0.00 | 0.00 | 0.00 | 41 | 1014.7 |
| 20260501232540 | 67 | 283 | 4.0 | 3.0 | 0.00 | 0.00 | 0.00 | 39 | 1014.7 |
| 20260501232041 | 67 | 330 | 0.0 | 0.0 | 0.00 | 0.00 | 0.00 | 39 | 1014.7 |
| 20260501231041 | 68 | 311 | 5.0 | 5.0 | 0.00 | 0.00 | 0.00 | 38 | 1014.9 |
| 20260501230542 | 68 | 328 | 2.0 | 2.0 | 0.00 | 0.00 | 0.00 | 37 | 1014.9 |
| 20260501230043 | 68 | 321 | 4.0 | 5.0 | 0.00 | 0.00 | 0.00 | 37 | 1015.0 |
| 20260501225045 | 68 | 293 | 0.0 | 0.0 | 0.00 | 0.00 | 0.00 | 29 | 1015.0 |
| 20260501224543 | 68 | 259 | 1.0 | 5.0 | 0.00 | 0.00 | 0.00 | 28 | 1015.0 |
| 20260501224044 | 68 | 226 | 2.0 | 3.0 | 0.00 | 0.00 | 0.00 | 29 | 1015.1 |
| 20260501223545 | 68 | 191 | 4.0 | 1.0 | 0.00 | 0.00 | 0.00 | 27 | 1015.1 |
| 20260501223046 | 67 | 340 | 2.0 | 0.0 | 0.00 | 0.00 | 0.00 | 26 | 1015.1 |
| 20260501222547 | 67 | 312 | 2.0 | 4.0 | 0.00 | 0.00 | 0.00 | 29 | 1015.1 |
| 20260501222046 | 67 | 135 | 2.0 | 2.0 | 0.00 | 0.00 | 0.00 | 27 | 1015.2 |
| 20260501221547 | 67 | 198 | 2.0 | 0.0 | 0.00 | 0.00 | 0.00 | 28 | 1015.2 |
| 20260501221048 | 67 | 225 | 0.0 | 0.0 | 0.00 | 0.00 | 0.00 | 28 | 1015.3 |
| 20260501220050 | 66 | 181 | 0.0 | 0.0 | 0.00 | 0.00 | 0.00 | 27 | 1015.4 |
| 20260501215548 | 66 | 181 | 0.0 | 0.0 | 0.00 | 0.00 | 0.00 | 27 | 1015.6 |
| 20260501215049 | 66 | 122 | 2.0 | 0.0 | 0.00 | 0.00 | 0.00 | 27 | 1015.6 |
| 20260501214550 | 67 | 228 | 0.0 | 0.0 | 0.00 | 0.00 | 0.00 | 27 | 1015.6 |
| 20260501214052 | 66 | 228 | 0.0 | 0.0 | 0.00 | 0.00 | 0.00 | 27 | 1015.7 |
| 20260501213553 | 66 | 204 | 1.0 | 1.0 | 0.00 | 0.00 | 0.00 | 28 | 1015.7 |
| 20260501213051 | 66 | 354 | 1.0 | 2.0 | 0.00 | 0.00 | 0.00 | 27 | 1015.7 |
| 20260501211055 | 67 | 87 | 0.0 | 0.0 | 0.00 | 0.00 | 0.00 | 27 | 1015.8 |
| 20260501210553 | 67 | 134 | 2.0 | 0.0 | 0.00 | 0.00 | 0.00 | 26 | 1015.8 |
| 20260501205555 | 66 | 212 | 0.0 | 3.0 | 0.00 | 0.00 | 0.00 | 30 | 1015.9 |
| 20260501205057 | 65 | 0 | 0.0 | 1.0 | 0.00 | 0.00 | 0.00 | 29 | 1015.9 |
| 20260501204056 | 65 | 291 | 0.0 | 0.0 | 0.00 | 0.00 | 0.00 | 32 | 1015.9 |
| 20260501203557 | 65 | 301 | 0.0 | 0.0 | 0.00 | 0.00 | 0.00 | 29 | 1016.0 |
| 20260501203058 | 64 | 301 | 0.0 | 0.0 | 0.00 | 0.00 | 0.00 | 32 | 1016.0 |
| 20260501202100 | 64 | 153 | 0.0 | 0.0 | 0.00 | 0.00 | 0.00 | 30 | 1016.2 |
| 20260501201559 | 64 | 153 | 1.0 | 0.0 | 0.00 | 0.00 | 0.00 | 31 | 1016.2 |
| 20260501201100 | 64 | 207 | 1.0 | 5.0 | 0.00 | 0.00 | 0.00 | 31 | 1016.2 |
| 20260501200601 | 64 | 38 | 1.0 | 0.0 | 0.00 | 0.00 | 0.00 | 33 | 1016.2 |
| 20260501195101 | 64 | 68 | 3.0 | 2.0 | 0.00 | 0.00 | 0.00 | 32 | 1016.2 |
| 20260501194103 | 64 | 11 | 5.0 | 4.0 | 0.00 | 0.00 | 0.00 | 32 | 1016.3 |
| 20260501193106 | 64 | 162 | 3.0 | 0.0 | 0.00 | 0.00 | 0.00 | 33 | 1016.3 |
| 20260501192604 | 64 | 125 | 3.0 | 3.0 | 0.00 | 0.00 | 0.00 | 34 | 1016.3 |
| 20260501192105 | 64 | 6 | 2.0 | 2.0 | 0.00 | 0.00 | 0.00 | 34 | 1016.3 |
| 20260501191606 | 64 | 195 | 5.0 | 5.0 | 0.00 | 0.00 | 0.00 | 33 | 1016.4 |
| 20260501191107 | 63 | 148 | 2.0 | 1.0 | 0.00 | 0.00 | 0.00 | 35 | 1016.4 |
| 20260501190608 | 63 | 7 | 1.0 | 2.0 | 0.00 | 0.00 | 0.00 | 36 | 1016.5 |
| 20260501185607 | 62 | 117 | 6.0 | 6.0 | 0.00 | 0.00 | 0.00 | 37 | 1016.5 |
| 20260501185108 | 62 | 98 | 2.0 | 0.0 | 0.00 | 0.00 | 0.00 | 37 | 1016.4 |
| 20260501184609 | 61 | 94 | 2.0 | 4.0 | 0.00 | 0.00 | 0.00 | 38 | 1016.5 |
| 20260501183608 | 61 | 122 | 3.0 | 1.0 | 0.00 | 0.00 | 0.00 | 38 | 1016.6 |
| 20260501182610 | 61 | 191 | 3.0 | 2.0 | 0.00 | 0.00 | 0.00 | 40 | 1016.5 |